View from above orbital plane
|
View from above satellite
|
Ground track
|
The orbit data is extracted from the following two-line orbital elements,
1 40887U 15044A 21015.82938787 -.00000096 00000-0 00000-0 0 9998
2 40887 2.7628 349.3276 0057258 357.1322 142.5987 1.00272077 19729
Epoch (UTC): | 15 January 2021 19:54:19 |
Eccentricity: | 0.0057258 |
inclination: | 2.7628° |
perigee height: | 35545 km |
apogee height: | 36027 km |
right ascension of ascending node: | 349.3276° |
argument of perigee: | 357.1322° |
revolutions per day: | 1.00272077 |
mean anomaly at epoch: | 142.5987° |
orbit number at epoch: | 1972 |
The dashed part of the orbit path shows where the satellite is in the earth's shadow,
|
|